SCOUT A DEB, 2994

Orbit data source: Space-Track

SCOUT A DEB, 2994 is space debris in LEO originally from a launch on Mon, 25 Sep 1967 UTC launched from the Air Force Western Test Range (AFWTR). Debris objects in space refer to the collection of defunct objects orbiting the Earth. Examples of debris include non-operational satellites, rocket bodies, and fragments generated from explosions, collisions, or faulty payload assembly.

Loading next visibility...
SCOUT A DEB details
Identifier
2994, 1967-092C
Orbit
LEO
Last TLE update17 hours ago
Origin
Flag of USUSN NAVAIR (US)
ManufacturerUnknown
MissionSpacecraft
Bus & MotorUnknown
MassUnknown
Launch date (UTC)
1967-09-25 (57 years ago)
Launch vehicleUnknown
Launch site
Air Force Western Test Range (AFWTR)
Object type
Payload
Rocket body
Debris
Shape & HBRUnknown
Radar Cross SectionSmall (<0.1 m²)

Expand to show TLE details & history

TLE from 17 hours ago
0 SCOUT A DEB
1 02994U 67092C   25043.92447494  .00000968  00000-0  66667-3 0  9992
2 02994  89.4366  15.1956 0087321 299.0850  60.1604 13.96852042906465
Epoch: 2025-02-12T22:11Z
Definitive object data (Epoch: 2025-02-12T22:11:14.634Z)
Latitude0.00004°
Longitude-100.82334°
Altitude876.509 km
Speed7.43 km/s
True Right ascension01h 00m 46s
True Declination0° 00' 00"
Sunlit
Object was in daylight at TLE epoch
Visualization TLE readout
Latitude-52.07639°
Longitude-101.58609°
Altitude862.624 km
Speed7.452 km/s
Apparent Right ascension03h 28m 13s
Apparent Declination-52° 04' 29"
Sunlit
Object is in daylight
Visualization observer readout
Local Sidereal Time17:43:13
Azimuth129.057° SE
Elevation-63.911°
Doppler factor1
Orbital elements
Apogee altitude965.267 km
Perigee altitude838.13 km
Semi-major axis7,279.836 km
Eccentricity0.0087321
Inclination89.4366°
RAAN15.1956°
Arg. of periapsis299.085°
True anomaly61.03307°
Mean anomaly60.1604°
Eccentric anomaly60.59626°
Mean motion3.4943 °/min
BSTAR0.00066667
Orbital period103.02 mins
Loading maneuver chart data...
Loading historical data...
Loading historical data...
Loading historical data...
Loading historical data...
Loading historical data...
Loading historical data...
Loading historical data...

SCOUT A DEB Visibility forecast

Observer location: undefined°, undefined

Span
Click to sort rows by Start time (UTC) header in descending order
Start Az.
Max El. time (UTC)
Max El. Az.
Max El.
End time (UTC)
End Az.
10 mins2025-02-13 22:22:04.922Z177.471° S2025-02-13 22:27:04.922Z350.949° N44.658°2025-02-13 22:32:04.922Z358.236° N
8 mins2025-02-14 09:11:04.922Z36.93° NE2025-02-14 09:14:04.922Z73.678° E23.66°2025-02-14 09:19:04.922Z133.975° SE
10 mins2025-02-14 10:53:04.922Z344.153° N2025-02-14 10:58:04.922Z269.129° W34.793°2025-02-14 11:03:04.922Z209.842° SW
|